Change the Weather History Date:

Tuesday, March 5, 2013

  Actual Average Record
Temperature  
Mean Temperature 44 °F -  
Max Temperature 50 °F 61 °F 85 °F (1991)
Min Temperature 37 °F 33 °F 12 °F (1960)
Degree Days  
Heating Degree Days 20    
Moisture  
Dew Point 25 °F    
Average Humidity 49    
Maximum Humidity 76    
Minimum Humidity 30    
Precipitation  
Precipitation 0.00 in - - ()
Sea Level Pressure  
Sea Level Pressure 30.21 in    
Wind  
Wind Speed 16 mph (NW)    
Max Wind Speed 24 mph    
Max Gust Speed 38 mph    
Visibility 10 miles    
Events      
Averages and records for this station are not official NWS values.
T = Trace of Precipitation, MM = Missing Value Source: NWS Daily Summary

Daily Weather History Graph

Daily Weather History Graph

Search for Another Location

Airport or City:

Trip Planner

Search our weather history database for the weather conditions in past years. The results will help you decide how hot, cold, wet, or windy it might be!

Date:

Astronomy

Mar. 05, 2013 Rise Set
Actual Time 6:43 AM CST 6:18 PM CST
Civil Twilight 6:17 AM CST 6:43 PM CST
Nautical Twilight 5:48 AM CST 7:13 PM CST
Astronomical Twilight 5:18 AM CST 7:42 PM CST
Moon 1:47 AM CST (3/5) 12:07 PM CST (3/5)
Length of Visible Light 12h 26m
Length of Day
11h 35m
Last Quarter, 40% of the Moon is Illuminated
Mar 5
Last Quarter
Mar 11
New
Mar 19
First Quarter
Mar 27
Full
Apr 2
Last Quarter

Hourly Weather History & Observations

Time (CST) Temp. Windchill Dew Point Humidity Pressure Visibility Wind Dir Wind Speed Gust Speed Precip Events Conditions
12:15 AM 50.0 °F - 35.6 °F 58% 29.91 in 10.0 mi NNW 13.8 mph 18.4 mph N/A   Overcast
12:35 AM 50.0 °F - 35.6 °F 58% 29.91 in 10.0 mi NNW 18.4 mph 27.6 mph N/A   Mostly Cloudy
12:55 AM 48.2 °F - 33.8 °F 58% 29.92 in 10.0 mi NNW 21.9 mph 27.6 mph N/A   Scattered Clouds
1:15 AM 48.2 °F - 33.8 °F 58% 29.91 in 10.0 mi NNW 21.9 mph 26.5 mph N/A   Clear
1:55 AM 46.4 °F 39.5 °F 33.8 °F 62% 29.96 in 10.0 mi NNW 17.3 mph 27.6 mph N/A   Clear
2:35 AM 46.4 °F 39.5 °F 33.8 °F 62% 29.99 in 10.0 mi NNW 17.3 mph 24.2 mph N/A   Mostly Cloudy
2:55 AM 44.6 °F 36.1 °F 33.8 °F 66% 29.99 in 10.0 mi NNW 21.9 mph 28.8 mph N/A   Overcast
3:15 AM 44.6 °F 37.2 °F 33.8 °F 66% 30.03 in 10.0 mi NW 17.3 mph 31.1 mph N/A   Overcast
3:35 AM 42.8 °F 34.8 °F 33.8 °F 70% 30.05 in 10.0 mi NW 17.3 mph 33.4 mph N/A   Overcast
3:55 AM 42.8 °F 35.1 °F 33.8 °F 70% 30.05 in 10.0 mi NNW 16.1 mph 38.0 mph N/A   Overcast
4:15 AM 42.8 °F 35.8 °F 33.8 °F 70% 30.07 in 10.0 mi NNW 13.8 mph 20.7 mph N/A   Overcast
4:55 AM 42.8 °F 36.6 °F 33.8 °F 70% 30.09 in 10.0 mi NNW 11.5 mph 24.2 mph N/A   Overcast
5:15 AM 41.0 °F 34.3 °F 33.8 °F 76% 30.10 in 10.0 mi NNW 11.5 mph 24.2 mph N/A   Overcast
5:35 AM 41.0 °F 33.5 °F 33.8 °F 76% 30.10 in 10.0 mi NNW 13.8 mph 24.2 mph N/A   Mostly Cloudy
5:55 AM 41.0 °F 32.2 °F 33.8 °F 76% 30.12 in 10.0 mi NW 18.4 mph 23.0 mph N/A   Overcast
6:15 AM 41.0 °F 31.4 °F 33.8 °F 76% 30.15 in 10.0 mi NW 21.9 mph 26.5 mph N/A   Overcast
6:55 AM 41.0 °F 33.9 °F 33.8 °F 76% 30.16 in 10.0 mi NNW 12.7 mph 18.4 mph N/A   Overcast
7:15 AM 41.0 °F 33.5 °F 33.8 °F 76% 30.16 in 10.0 mi NNW 13.8 mph - N/A   Overcast
7:35 AM 42.8 °F 36.6 °F 33.8 °F 70% 30.17 in 10.0 mi NNW 11.5 mph 21.9 mph N/A   Overcast
7:55 AM 42.8 °F 35.8 °F 33.8 °F 70% 30.18 in 10.0 mi NNW 13.8 mph 21.9 mph N/A   Overcast
8:15 AM 41.0 °F 32.2 °F 33.8 °F 76% 30.20 in 10.0 mi WNW 18.4 mph - N/A   Overcast
8:35 AM 41.0 °F 32.8 °F 32.0 °F 70% 30.22 in 10.0 mi NW 16.1 mph 25.3 mph N/A   Mostly Cloudy
8:55 AM 41.0 °F 33.9 °F 28.4 °F 61% 30.24 in 10.0 mi NW 12.7 mph 25.3 mph N/A   Scattered Clouds
9:15 AM 42.8 °F 34.3 °F 24.8 °F 49% 30.25 in 10.0 mi NW 19.6 mph 31.1 mph N/A   Scattered Clouds
9:35 AM 41.0 °F 30.9 °F 17.6 °F 39% 30.26 in 10.0 mi NNW 24.2 mph 35.7 mph N/A   Clear
9:55 AM 41.0 °F 31.4 °F 15.8 °F 36% 30.27 in 10.0 mi NNW 21.9 mph 32.2 mph N/A   Clear
10:15 AM 42.8 °F 34.5 °F 17.6 °F 36% 30.28 in 10.0 mi NNW 18.4 mph 27.6 mph N/A   Clear
10:35 AM 42.8 °F 33.5 °F 17.6 °F 36% 30.28 in 10.0 mi NW 23.0 mph 32.2 mph N/A   Clear
10:55 AM 42.8 °F 34.3 °F 15.8 °F 34% 30.28 in 10.0 mi NW 19.6 mph 32.2 mph N/A   Clear
11:15 AM 42.8 °F 33.5 °F 15.8 °F 34% 30.28 in 10.0 mi NNW 23.0 mph 34.5 mph N/A   Clear
11:35 AM 44.6 °F 35.7 °F 17.6 °F 34% 30.27 in 10.0 mi NW 24.2 mph 33.4 mph N/A   Clear
11:55 AM 44.6 °F 37.4 °F 17.6 °F 34% 30.28 in 10.0 mi NNW 16.1 mph 29.9 mph N/A   Clear
12:15 PM 44.6 °F 36.6 °F 17.6 °F 34% 30.28 in 10.0 mi NW 19.6 mph 34.5 mph N/A   Clear
12:35 PM 44.6 °F 37.2 °F 17.6 °F 34% 30.28 in 10.0 mi North 17.3 mph 27.6 mph N/A   Clear
12:55 PM 44.6 °F 35.9 °F 17.6 °F 34% 30.28 in 10.0 mi NW 23.0 mph 28.8 mph N/A   Clear
1:15 PM 46.4 °F 39.2 °F 19.4 °F 34% 30.28 in 10.0 mi NW 18.4 mph 31.1 mph N/A   Clear
1:35 PM 46.4 °F 38.7 °F 19.4 °F 34% 30.27 in 10.0 mi NW 20.7 mph 32.2 mph N/A   Clear
1:55 PM 48.2 °F - 19.4 °F 32% 30.27 in 10.0 mi NNW 19.6 mph 28.8 mph N/A   Clear
2:15 PM 48.2 °F - 21.2 °F 34% 30.26 in 10.0 mi WNW 19.6 mph - N/A   Clear
2:35 PM 50.0 °F - 19.4 °F 30% 30.26 in 10.0 mi NW 21.9 mph 29.9 mph N/A   Clear
2:55 PM 50.0 °F - 19.4 °F 30% 30.25 in 10.0 mi WNW 15.0 mph - N/A   Clear
3:15 PM 50.0 °F - 21.2 °F 32% 30.26 in 10.0 mi WNW 16.1 mph 20.7 mph N/A   Clear
3:35 PM 50.0 °F - 19.4 °F 30% 30.26 in 10.0 mi WNW 13.8 mph 23.0 mph N/A   Clear
3:55 PM 50.0 °F - 19.4 °F 30% 30.25 in 10.0 mi NNW 17.3 mph 26.5 mph N/A   Clear
4:15 PM 50.0 °F - 19.4 °F 30% 30.25 in 10.0 mi NW 18.4 mph 27.6 mph N/A   Clear
4:35 PM 50.0 °F - 19.4 °F 30% 30.25 in 10.0 mi NW 17.3 mph 20.7 mph N/A   Clear
4:55 PM 50.0 °F - 19.4 °F 30% 30.25 in 10.0 mi NNW 16.1 mph 21.9 mph N/A   Clear
5:15 PM 50.0 °F - 19.4 °F 30% 30.25 in 10.0 mi NW 16.1 mph 23.0 mph N/A   Clear
5:35 PM 48.2 °F - 19.4 °F 32% 30.25 in 10.0 mi NW 15.0 mph - N/A   Clear
5:55 PM 48.2 °F - 19.4 °F 32% 30.26 in 10.0 mi NW 9.2 mph 17.3 mph N/A   Clear
6:15 PM 46.4 °F 40.7 °F 19.4 °F 34% 30.26 in 10.0 mi NW 12.7 mph 19.6 mph N/A   Clear
6:35 PM 46.4 °F 41.1 °F 19.4 °F 34% 30.27 in 10.0 mi NW 11.5 mph - N/A   Clear
6:55 PM 44.6 °F 39.2 °F 21.2 °F 39% 30.27 in 10.0 mi NW 10.4 mph - N/A   Clear
7:15 PM 44.6 °F 39.7 °F 21.2 °F 39% 30.28 in 10.0 mi NW 9.2 mph - N/A   Clear
7:35 PM 44.6 °F 40.7 °F 21.2 °F 39% 30.28 in 10.0 mi WNW 6.9 mph - N/A   Clear
7:55 PM 42.8 °F 40.1 °F 21.2 °F 42% 30.28 in 10.0 mi West 4.6 mph - N/A   Clear
8:15 PM 42.8 °F 41.1 °F 21.2 °F 42% 30.29 in 10.0 mi West 3.5 mph - N/A   Clear
8:35 PM 41.0 °F 39.0 °F 23.0 °F 49% 30.30 in 10.0 mi WNW 3.5 mph - N/A   Clear
8:55 PM 41.0 °F 37.1 °F 23.0 °F 49% 30.31 in 10.0 mi WNW 5.8 mph - N/A   Clear
9:15 PM 41.0 °F 35.8 °F 23.0 °F 49% 30.32 in 10.0 mi NW 8.1 mph - N/A   Clear
9:35 PM 41.0 °F 35.2 °F 23.0 °F 49% 30.32 in 10.0 mi NW 9.2 mph - N/A   Clear
9:55 PM 41.0 °F 35.8 °F 23.0 °F 49% 30.34 in 10.0 mi NW 8.1 mph - N/A   Clear
10:15 PM 41.0 °F 35.8 °F 23.0 °F 49% 30.34 in 10.0 mi NNW 8.1 mph - N/A   Clear
10:35 PM 41.0 °F 35.8 °F 23.0 °F 49% 30.34 in 10.0 mi NNW 8.1 mph - N/A   Clear
10:55 PM 39.2 °F 35.0 °F 23.0 °F 52% 30.35 in 10.0 mi NW 5.8 mph - N/A   Clear
11:15 PM 39.2 °F 33.6 °F 23.0 °F 52% 30.35 in 10.0 mi NNW 8.1 mph - N/A   Clear
11:35 PM 39.2 °F 32.0 °F 23.0 °F 52% 30.35 in 10.0 mi NNW 11.5 mph - N/A   Clear
11:55 PM 37.4 °F 33.8 °F 23.0 °F 56% 30.35 in 10.0 mi NNW 4.6 mph - N/A   Clear